Regional Weather Roundup
Issued by NWS Bismarck, ND

Home | Current Version | Previous Version | Graphics & Text | Print | Product List | Glossary On
Versions: 1 2 3 4 5 6 7 8 9 10 11 12 13 14 15 16 17 18 19 20 21 22 23 24 25 26 27 28 29 30 31 32 33 34 35 36 37 38 39 40 41 42 43 44 45 46 47 48 49 50
000
ASUS43 KBIS 301010
RWRBIS

NWR BROADCAST TEXT
NATIONAL WEATHER SERVICE BISMARCK ND
500 AM CDT SAT MAY 30 2015

NOTE: "FAIR" INDICATES FEW OR NO CLOUDS BELOW 12,000 FEET WITH NO
SIGNIFICANT WEATHER AND/OR OBSTRUCTIONS TO VISIBILITY.


CITY           SKY/WX    TMP DP  RH WIND       PRES   REMARKS
WILLISTON      PTCLDY    43  34  70 NE3       30.31R
MINOT          CLEAR     33  28  81 E6        30.37S
MINOT AFB      CLEAR     33  33  99 E5        30.38R
BISMARCK       CLEAR     35  32  88 E8        30.37R
DICKINSON      PTCLDY    34  29  82 SE6       30.28F
GARRISON         N/A     38  31  76 E10       30.36R
HETTINGER ARPT CLEAR     32  29  88 CALM      30.31S
JAMESTOWN      CLEAR     35  27  72 NE13      30.37R
BEACH          FAIR      36  36 100 SE6       30.28S
CARRINGTON     FAIR      34  27  75 E8        30.40R
CROSBY         FAIR      37  34  87 E10       30.35R
HARVEY         FAIR      32  28  86 E7        30.39R
HAZEN          FAIR      34  32  93 E5        30.37R
LINTON         FAIR      36  34  93 E7        30.35R
MANDAN         FAIR      36  32  87 E9        30.37R
OAKES            N/A     36  30  80 N15       30.34R
STANLEY        FAIR      36  36 100 E10       30.36R
WATFORD CITY   FAIR      36  32  87 E3        30.30R
$$

CITY           SKY/WX    TMP DP  RH WIND       PRES   REMARKS
GRAND FORKS    CLEAR     32  25  75 N9        30.38R
GRAND FORKS AF CLEAR     29  24  80 N6        30.38R
DEVILS LAKE    CLEAR     32  21  64 NE5       30.38R
FARGO          CLEAR     36  28  73 N13       30.34R
CANDO          FAIR      30  25  80 NE5       30.41R
CAVALIER       FAIR      32  25  74 N9        30.40R
GRAFTON        FAIR      32  27  80 N8        30.40R
LANGDON        FAIR      28  23  80 N8        30.38S
ROLLA          FAIR      28  28 100 CALM      30.40R
WALHALLA         N/A     28  27  93 MISG      30.41S
$$

CITY           SKY/WX    TMP DP  RH WIND       PRES   REMARKS
ABERDEEN       CLEAR     40  33  76 N14       30.32R
MOBRIDGE       CLEAR     40  36  86 CALM      30.31R
BUFFALO          N/A     37  33  85 SE8       30.22F
RAPID CITY     CLEAR     35  34  96 CALM      30.30S
GLASGOW        MOCLDY    44  33  65 E16       30.19F
SIDNEY         MOCLDY    37  30  75 CALM      30.29S
WOLF POINT     MOCLDY    39  33  79 E7        30.25S
GLENDIVE       PTCLDY    43  34  70 E8        30.26S
MILES CITY     PTCLDY    47  37  68 SE12      30.19S
BAKER          CLEAR     37  34  89 SE12      30.27S
$$

CITY           SKY/WX    TMP DP  RH WIND       PRES   REMARKS
BILLINGS       CLOUDY    48  42  80 NW8       30.14R
GREAT FALLS    MOCLDY    53  45  74 SE5       30.03F
REGINA         MOCLDY    37  30  75 E16       30.34S
ESTEVAN        MOCLDY    36  28  75 E15G22    30.36S
$$



USA.gov is the U.S. government's official web portal to all federal, state and local government web resources and services.